Weather History for Truth Or Consequences, NM

Change the Weather History Date:

Friday, December 21, 2012

  Actual Average Record
Temperature  
Mean Temperature 35 °F -  
Max Temperature 49 °F 52 °F 66 °F (2003)
Min Temperature 20 °F 27 °F 19 °F (1999)
Degree Days  
Heating Degree Days 30    
Month to date heating degree days 422  
Since 1 July heating degree days 848  
Moisture  
Dew Point 3 °F    
Average Humidity 29    
Maximum Humidity 45    
Minimum Humidity 12    
Precipitation  
Precipitation 0.00 in - 0.14 in (2013)
Month to date precipitation 0.51  
Year to date precipitation 3.11  
Sea Level Pressure  
Sea Level Pressure 30.30 in    
Wind  
Wind Speed 5 mph (North)    
Max Wind Speed 9 mph    
Max Gust Speed 12 mph    
Visibility 10 miles    
Events      
T = Trace of Precipitation, MM = Missing Value Source: NWS Daily Summary

Daily Weather History Graph

Daily Weather History Graph

Search for Another Location

Airport:

Trip Planner

Search our weather history database for the weather conditions in past years. The results will help you decide how hot, cold, wet, or windy it might be!

Date:

Astronomy

Dec. 21, 2012 Rise Set
Actual Time 7:08 AM MST 5:06 PM MST
Civil Twilight 6:41 AM MST 5:33 PM MST
Nautical Twilight 6:10 AM MST 6:04 PM MST
Astronomical Twilight 5:40 AM MST 6:34 PM MST
Moon 12:43 PM MST (12/21) 1:11 AM MST (12/21)
Length of Visible Light 10h 52m
Length of Day
9h 57m
Waxing Gibbous, 65% of the Moon is Illuminated
Dec 21
Waxing Gibbous
Dec 28
Full
Jan 4
Last Quarter
Jan 11
New
Jan 18
First Quarter

Hourly Weather History & Observations

Time (MST) Temp. Windchill Dew Point Humidity Pressure Visibility Wind Dir Wind Speed Gust Speed Precip Events Conditions
12:53 AM 25.0 °F 19.3 °F 5.0 °F 43% 30.42 in 10.0 mi NW 4.6 mph - N/A   Clear
1:53 AM 27.0 °F 21.6 °F 3.9 °F 37% 30.39 in 10.0 mi NNW 4.6 mph - N/A   Clear
2:53 AM 25.0 °F 18.1 °F 3.9 °F 41% 30.38 in 10.0 mi NNW 5.8 mph - N/A   Clear
3:53 AM 23.0 °F 17.0 °F 3.9 °F 44% 30.36 in 10.0 mi NNW 4.6 mph - N/A   Clear
4:53 AM 21.0 °F 16.2 °F 3.9 °F 48% 30.37 in 10.0 mi NW 3.5 mph - N/A   Clear
5:53 AM 21.9 °F 14.5 °F 3.0 °F 44% 30.39 in 10.0 mi NNW 5.8 mph - N/A   Clear
6:53 AM 21.0 °F 16.2 °F 1.9 °F 44% 30.38 in 10.0 mi North 3.5 mph - N/A   Clear
7:53 AM 23.0 °F 17.0 °F 3.9 °F 44% 30.40 in 10.0 mi North 4.6 mph - N/A   Clear
8:53 AM 28.9 °F 23.9 °F 3.9 °F 35% 30.39 in 10.0 mi NNE 4.6 mph - N/A   Clear
9:53 AM 34.0 °F 29.8 °F 6.1 °F 31% 30.38 in 10.0 mi ENE 4.6 mph - N/A   Clear
10:53 AM 37.9 °F 32.1 °F 3.9 °F 24% 30.36 in 10.0 mi NNE 8.1 mph - N/A   Clear
11:53 AM 41.0 °F 37.1 °F 3.0 °F 21% 30.31 in 10.0 mi NNE 5.8 mph - N/A   Clear
12:53 PM 45.0 °F 42.6 °F 3.0 °F 18% 30.26 in 10.0 mi ENE 4.6 mph - N/A   Clear
1:53 PM 46.9 °F - 1.9 °F 16% 30.20 in 10.0 mi Variable 3.5 mph - N/A   Clear
2:53 PM 48.0 °F - -0.9 °F 13% 30.19 in 10.0 mi ESE 3.5 mph - N/A   Clear
3:53 PM 48.0 °F - -2.9 °F 12% 30.19 in 10.0 mi Calm Calm - N/A   Clear
4:53 PM 45.0 °F - -0.0 °F 15% 30.20 in 10.0 mi Calm Calm - N/A   Clear
5:53 PM 44.1 °F - -0.0 °F 16% 30.22 in 10.0 mi Calm Calm - N/A   Clear
6:53 PM 37.0 °F 32.4 °F 5.0 °F 26% 30.27 in 10.0 mi North 5.8 mph - N/A   Clear
7:53 PM 37.9 °F 34.4 °F 5.0 °F 25% 30.26 in 10.0 mi NNW 4.6 mph - N/A   Clear
8:53 PM 30.9 °F 25.2 °F 5.0 °F 33% 30.27 in 10.0 mi WNW 5.8 mph - N/A   Clear
9:53 PM 30.9 °F 23.5 °F 5.0 °F 33% 30.25 in 10.0 mi WNW 8.1 mph - N/A   Clear
10:53 PM 30.0 °F 22.4 °F 5.0 °F 35% 30.24 in 10.0 mi NW 8.1 mph - N/A   Clear
11:53 PM 30.9 °F 24.3 °F 6.1 °F 35% 30.21 in 10.0 mi NNW 6.9 mph - N/A   Clear